Weather History for Marion, VA

Change the Weather History Date:

Tuesday, December 11, 2012

  Actual Average (KGEV) Record (KGEV)
Temperature  
Mean Temperature 36 °F -  
Max Temperature 41 °F 47 °F 73 °F (2007)
Min Temperature 31 °F 26 °F 7 °F (1968)
Degree Days  
Heating Degree Days 29    
Moisture  
Dew Point 32 °F    
Average Humidity 83    
Maximum Humidity 99    
Minimum Humidity 71    
Precipitation  
Precipitation 0.01 in - - ()
Sea Level Pressure  
Sea Level Pressure 30.01 in    
Wind  
Wind Speed 7 mph (WNW)    
Max Wind Speed 14 mph    
Max Gust Speed 20 mph    
Visibility 10 miles    
Events Snow    
Averages and records for this station are not official NWS values.
T = Trace of Precipitation, MM = Missing Value Source: NWS Daily Summary

Daily Weather History Graph

Daily Weather History Graph

Search for Another Location

Airport:

Trip Planner

Search our weather history database for the weather conditions in past years. The results will help you decide how hot, cold, wet, or windy it might be!

Date:

Astronomy

Dec. 11, 2012 Rise Set
Actual Time 7:28 AM EST 5:09 PM EST
Civil Twilight 6:59 AM EST 5:38 PM EST
Nautical Twilight 6:27 AM EST 6:10 PM EST
Astronomical Twilight 5:55 AM EST 6:42 PM EST
Moon 5:23 AM EST (12/11) 3:46 PM EST (12/11)
Length of Visible Light 10h 38m
Length of Day
9h 40m
Waning Crescent, 4% of the Moon is Illuminated
Dec 11
Waning Crescent
Dec 13
New
Dec 20
First Quarter
Dec 28
Full
Jan 4
Last Quarter

Hourly Weather History & Observations

Time (EST) Temp. Windchill Dew Point Humidity Pressure Visibility Wind Dir Wind Speed Gust Speed Precip Events Conditions
12:15 AM 41.9 °F 35.4 °F 40.6 °F 95% 29.83 in 7.0 mi West 11.5 mph - N/A   Overcast
12:35 AM 41.0 °F 36.4 °F 39.2 °F 93% 29.84 in 10.0 mi West 6.9 mph - N/A   Overcast
12:55 AM 41.0 °F 38.0 °F 39.4 °F 94% 29.84 in 10.0 mi SW 4.6 mph - N/A   Overcast
1:15 AM 40.6 °F 37.5 °F 39.7 °F 97% 29.84 in 5.0 mi West 4.6 mph - N/A   Overcast
1:35 AM 40.5 °F 35.8 °F 40.1 °F 99% 29.84 in 2.5 mi West 6.9 mph - 0.01 in   Drizzle
1:55 AM 40.1 °F 36.9 °F 39.9 °F 99% 29.84 in 4.0 mi West 4.6 mph - 0.01 in   Overcast
2:15 AM 40.3 °F 35.5 °F 39.6 °F 97% 29.85 in 10.0 mi WSW 6.9 mph - N/A   Overcast
2:35 AM 40.6 °F 36.7 °F 40.1 °F 98% 29.86 in 10.0 mi West 5.8 mph - N/A   Overcast
2:55 AM 40.5 °F 35.8 °F 38.3 °F 92% 29.86 in 10.0 mi WNW 6.9 mph - N/A   Overcast
3:15 AM 40.3 °F 32.6 °F 38.1 °F 92% 29.86 in 10.0 mi WNW 13.8 mph 19.6 mph N/A   Overcast
3:35 AM 40.1 °F 34.7 °F 37.6 °F 91% 29.86 in 10.0 mi WNW 8.1 mph - N/A   Overcast
3:55 AM 40.1 °F 38.0 °F 36.9 °F 88% 29.87 in 10.0 mi WNW 3.5 mph - N/A   Overcast
4:15 AM 39.7 °F 34.9 °F 37.6 °F 92% 29.87 in 10.0 mi WNW 6.9 mph - N/A   Overcast
4:35 AM 39.4 °F 33.2 °F 37.2 °F 92% 29.87 in 10.0 mi WNW 9.2 mph - N/A   Overcast
4:55 AM 39.2 °F 33.6 °F 35.8 °F 88% 29.89 in 10.0 mi WNW 8.1 mph 16.1 mph N/A   Overcast
5:15 AM 38.5 °F 32.7 °F 35.8 °F 90% 29.90 in 10.0 mi WNW 8.1 mph - N/A   Overcast
5:35 AM 38.3 °F 31.9 °F 34.5 °F 86% 29.91 in 10.0 mi NW 9.2 mph - N/A   Overcast
5:55 AM 37.9 °F 33.5 °F 34.0 °F 86% 29.91 in 10.0 mi West 5.8 mph - N/A   Overcast
6:15 AM 37.9 °F 35.5 °F 33.8 °F 85% 29.91 in 10.0 mi WNW 3.5 mph - N/A   Overcast
6:35 AM 37.9 °F 33.5 °F 33.8 °F 85% 29.93 in 10.0 mi WNW 5.8 mph - N/A   Overcast
6:55 AM 38.1 °F 34.6 °F 33.1 °F 82% 29.94 in 10.0 mi NW 4.6 mph - N/A   Overcast
7:15 AM 38.3 °F 33.2 °F 32.7 °F 80% 29.96 in 10.0 mi WNW 6.9 mph - N/A   Overcast
7:35 AM 38.1 °F 33.7 °F 32.9 °F 81% 29.95 in 10.0 mi WNW 5.8 mph - N/A   Overcast
7:55 AM 37.6 °F 32.3 °F 32.9 °F 83% 29.96 in 10.0 mi West 6.9 mph - N/A   Overcast
8:15 AM 38.3 °F 31.4 °F 33.1 °F 81% 29.97 in 10.0 mi West 10.4 mph - N/A   Overcast
8:35 AM 37.9 °F 32.7 °F 33.3 °F 83% 29.98 in 10.0 mi West 6.9 mph - N/A   Overcast
8:55 AM 37.9 °F 32.1 °F 34.0 °F 86% 29.98 in 10.0 mi West 8.1 mph - N/A   Overcast
9:15 AM 37.8 °F 33.3 °F 34.2 °F 87% 29.99 in 10.0 mi West 5.8 mph - N/A   Overcast
9:35 AM 37.6 °F 32.3 °F 33.6 °F 86% 30.00 in 10.0 mi NW 6.9 mph - N/A   Overcast
9:55 AM 37.4 °F 30.3 °F 33.8 °F 87% 30.01 in 5.0 mi West 10.4 mph - N/A Snow Light Snow
10:15 AM 37.6 °F 31.0 °F 32.2 °F 81% 30.02 in 10.0 mi WNW 9.2 mph - N/A   Overcast
10:35 AM 37.8 °F 30.7 °F 32.4 °F 81% 30.03 in 10.0 mi WNW 10.4 mph - N/A   Overcast
10:55 AM 37.8 °F 31.3 °F 32.0 °F 80% 30.04 in 10.0 mi WNW 9.2 mph - N/A   Overcast
11:15 AM 37.8 °F 31.8 °F 32.0 °F 80% 30.03 in 10.0 mi NW 8.1 mph 17.3 mph N/A   Overcast
11:35 AM 38.5 °F 32.1 °F 31.8 °F 77% 30.03 in 10.0 mi NW 9.2 mph - N/A   Overcast
11:55 AM 38.1 °F 31.2 °F 30.9 °F 75% 30.03 in 10.0 mi NW 10.4 mph 18.4 mph N/A   Overcast
12:15 PM 38.3 °F 31.9 °F 31.3 °F 76% 30.03 in 10.0 mi WNW 9.2 mph - N/A   Overcast
12:35 PM 38.7 °F 32.4 °F 31.3 °F 75% 30.01 in 10.0 mi NW 9.2 mph 16.1 mph N/A   Overcast
12:55 PM 38.3 °F 30.9 °F 30.4 °F 73% 30.02 in 10.0 mi WNW 11.5 mph 18.4 mph N/A   Overcast
1:15 PM 38.3 °F 31.9 °F 30.4 °F 73% 30.03 in 10.0 mi WNW 9.2 mph - N/A   Overcast
1:35 PM 38.7 °F 30.9 °F 30.4 °F 72% 30.02 in 10.0 mi NW 12.7 mph - N/A   Overcast
1:55 PM 38.7 °F 31.8 °F 29.8 °F 71% 30.02 in 10.0 mi NNW 10.4 mph 17.3 mph N/A   Overcast
2:15 PM 38.7 °F 31.4 °F 30.2 °F 72% 30.03 in 10.0 mi NW 11.5 mph 16.1 mph N/A   Overcast
2:35 PM 38.5 °F 31.6 °F 30.4 °F 73% 30.04 in 10.0 mi NW 10.4 mph 16.1 mph N/A   Overcast
2:55 PM 38.3 °F 33.9 °F 30.7 °F 74% 30.05 in 10.0 mi NW 5.8 mph - N/A   Overcast
3:15 PM 37.9 °F 30.9 °F 30.7 °F 75% 30.06 in 10.0 mi WNW 10.4 mph - N/A   Overcast
3:35 PM 37.8 °F 31.3 °F 30.7 °F 76% 30.06 in 10.0 mi WNW 9.2 mph - N/A   Overcast
3:55 PM 37.4 °F 31.4 °F 28.9 °F 71% 30.07 in 10.0 mi WNW 8.1 mph - N/A   Overcast
4:15 PM 36.9 °F 28.7 °F 28.6 °F 72% 30.07 in 10.0 mi WNW 12.7 mph - N/A   Mostly Cloudy
4:35 PM 36.5 °F 30.3 °F 28.2 °F 72% 30.08 in 10.0 mi NW 8.1 mph - N/A   Clear
4:55 PM 36.1 °F 29.3 °F 28.0 °F 72% 30.09 in 10.0 mi WNW 9.2 mph - N/A   Scattered Clouds
5:15 PM 35.8 °F 30.9 °F 28.6 °F 75% 30.09 in 10.0 mi WNW 5.8 mph - N/A   Overcast
5:35 PM 35.6 °F - 28.9 °F 77% 30.10 in 10.0 mi Calm Calm - N/A   Overcast
5:55 PM 35.4 °F - 29.1 °F 78% 30.11 in 10.0 mi Calm Calm - N/A   Overcast
6:15 PM 34.7 °F 31.8 °F 28.9 °F 79% 30.11 in 10.0 mi WNW 3.5 mph - N/A   Mostly Cloudy
6:35 PM 34.7 °F - 28.4 °F 78% 30.12 in 10.0 mi Calm Calm - N/A   Mostly Cloudy
6:55 PM 34.3 °F - 28.2 °F 78% 30.13 in 10.0 mi Calm Calm - N/A   Mostly Cloudy
7:15 PM 34.0 °F - 28.2 °F 79% 30.13 in 10.0 mi Calm Calm - N/A   Scattered Clouds
7:35 PM 33.4 °F - 28.0 °F 81% 30.14 in 10.0 mi Calm Calm - N/A   Scattered Clouds
7:55 PM 33.4 °F - 28.2 °F 81% 30.14 in 10.0 mi Calm Calm - N/A   Clear
8:15 PM 33.1 °F - 28.6 °F 84% 30.14 in 10.0 mi Calm Calm - N/A   Clear
8:35 PM 32.9 °F - 28.9 °F 85% 30.15 in 10.0 mi Calm Calm - N/A   Clear
8:55 PM 32.9 °F - 28.6 °F 84% 30.14 in 10.0 mi Calm Calm - N/A   Clear
9:15 PM 32.7 °F - 28.9 °F 86% 30.15 in 10.0 mi Calm Calm - N/A   Clear
9:35 PM 32.0 °F - 29.7 °F 91% 30.16 in 10.0 mi Calm Calm - N/A   Clear
9:55 PM 32.0 °F - 29.3 °F 90% 30.16 in 10.0 mi Calm Calm - N/A   Clear
10:15 PM 31.8 °F - 29.7 °F 92% 30.16 in 10.0 mi Calm Calm - N/A   Clear
10:35 PM 31.6 °F - 28.8 °F 89% 30.17 in 10.0 mi Calm Calm - N/A   Clear
10:55 PM 32.0 °F - 28.2 °F 86% 30.17 in 10.0 mi Calm Calm - N/A   Clear
11:15 PM 32.0 °F - 28.4 °F 87% 30.17 in 10.0 mi Calm Calm - N/A   Clear
11:35 PM 32.0 °F - 28.2 °F 86% 30.17 in 10.0 mi Calm Calm - N/A   Clear
11:55 PM 31.3 °F - 28.4 °F 89% 30.18 in 10.0 mi Calm Calm - N/A   Clear